Regional Weather Roundup
Issued by NWS

Home | Current Version | Previous Version | Graphics & Text | Print | Product List | Glossary Off
Versions: 1 2 3 4 5 6 7 8 9 10 11 12 13 14 15 16 17 18 19 20 21 22 23 24 25 26 27 28 29 30 31 32 33 34 35 36 37 38 39 40 41 42 43 44 45 46 47 48 49 50

000
ASUS43 KTOP 281259
RWRKS

WEATHER ROUNDUP FOR KANSAS
NATIONAL WEATHER SERVICE GOODLAND KS
800 AM CDT THU MAY 28 2015

NOTE:  "FAIR" INDICATES FEW OR NO CLOUDS BELOW 12,000 FEET WITH NO
SIGNIFICANT WEATHER AND/OR OBSTRUCTIONS TO VISIBILITY.

KSZ001>006-013>018-027>032-041>047-281400-
NORTHWEST KANSAS

CITY           SKY/WX    TMP DP  RH WIND       PRES   REMARKS
GOODLAND       PTSUNNY   61  58  90 SW14      30.00S
HAYS           CLOUDY    59  52  77 E7        30.02R
HILL CITY      CLOUDY    60  56  86 E8        30.01S
RUSSELL        CLOUDY    61  59  93 E13       30.00R
$$

KSZ061>065-074>080-084>089-281400-
SOUTHWEST KANSAS

CITY           SKY/WX    TMP DP  RH WIND       PRES   REMARKS
DODGE CITY     CLOUDY    63  54  72 SW16      29.99R
ELKHART          N/A     59  57  93 N1          N/A
GARDEN CITY    CLOUDY    59  56  89 SW8       30.01R
GREAT BEND     CLOUDY    61  57  88 E9        30.00R
LIBERAL        CLOUDY    63  54  72 S9        30.05F
$$

KSZ066>073-081>083-090>101-281400-
SOUTHEAST KANSAS

CITY           SKY/WX    TMP DP  RH WIND       PRES   REMARKS
CHANUTE        CLOUDY    67  65  93 E10       30.06F
COFFEYVILLE    LGT RAIN  68  65  90 SE7       30.05F
HUTCHINSON     CLOUDY    65  61  87 E14       30.02F
NEWTON         CLOUDY    63  59  88 SE10      30.07S
PARSONS        LGT RAIN  68  66  93 VRB3      30.06F
WICHITA INTL   CLOUDY    66  63  90 S3        30.04F
WICHITA JABRA  CLOUDY    65  63  93 NE3       30.05S
WINFIELD       LGT RAIN  67  65  93 SE6       30.03F
$$

KSZ007>012-019>026-033>040-048>060-102>105-281400-
NORTHEAST KANSAS

CITY           SKY/WX    TMP DP  RH WIND       PRES   REMARKS
CONCORDIA      CLOUDY    62  61  96 SE10      30.04R
EMPORIA        CLOUDY    65  64  97 S7        30.08R
LAWRENCE       CLOUDY    65  62  90 N5        30.05F
MANHATTAN      LGT RAIN  64  63  96 SE6       30.04F
OLATHE IND     LGT RAIN  64  62  93 E6        30.09F
OLATHE EXE     CLOUDY    66  63  90 NE5       30.08F
SALINA         CLOUDY    65  62  90 E12       30.03F
TOPEKA BILLARD CLOUDY    65  64  97 E3        30.06F
TOPEKA FORBES  LGT RAIN  66  63  90 CALM      30.06F
$$


USA.gov is the U.S. government's official web portal to all federal, state and local government web resources and services.